ISOI (RS19S)

Last updated on Thu Jun 06 2024 00:03:00 GMT+0000 (Coordinated Universal Time)

1 53381U 22096M 24156.66833618 .04587370 24794-5 11778-2 0 9999 2 53381 97.3697 79.5662 0010580 195.7589 164.3376 16.28654963102582

Satellite not in orbit